Meteo orario Allaire

Oggi, 25 Ottobre, Domenica

Tempo Temperatura Precipitazioni Vento Pressione Umidità
00:00 +11°C° 2.5 mm 6 m/s 748 mm Hg 86%
01:00 +11°C° 0.2 mm 6 m/s 748 mm Hg 86%
02:00 +11°C° 0.2 mm 6 m/s 748 mm Hg 86%
03:00 +10°C° 0.2 mm 5 m/s 748 mm Hg 85%
04:00 +10°C° 0.2 mm 5 m/s 748 mm Hg 85%
05:00 +9°C° 0.2 mm 5 m/s 748 mm Hg 85%
06:00 +10°C° 0.2 mm 4 m/s 748 mm Hg 84%
07:00 +10°C° 0.1 mm 5 m/s 748 mm Hg 81%
08:00 +10°C° 0.1 mm 6 m/s 748 mm Hg 77%
09:00 +11°C° 0.1 mm 6 m/s 748 mm Hg 74%
10:00 +12°C° 0.3 mm 7 m/s 748 mm Hg 72%
11:00 +12°C° 0.3 mm 8 m/s 748 mm Hg 69%
12:00 +12°C° 0.3 mm 8 m/s 748 mm Hg 67%
13:00 +12°C° 0.3 mm 8 m/s 748 mm Hg 68%
14:00 +12°C° 0.3 mm 8 m/s 747 mm Hg 68%
15:00 +12°C° 0.3 mm 8 m/s 747 mm Hg 69%
16:00 +11°C° 0.1 mm 7 m/s 748 mm Hg 73%
17:00 +10°C° 0.1 mm 5 m/s 748 mm Hg 78%
18:00 +8°C° 0.1 mm 4 m/s 748 mm Hg 82%
19:00 +8°C° 0 mm 4 m/s 749 mm Hg 83%
20:00 +8°C° 0 mm 4 m/s 749 mm Hg 83%
21:00 +8°C° 0 mm 4 m/s 749 mm Hg 84%
22:00 +8°C° 0 mm 4 m/s 749 mm Hg 84%
23:00 +8°C° 0 mm 3 m/s 749 mm Hg 85%

Domani, 26 Ottobre, Lunedi

Tempo Temperatura Precipitazioni Vento Pressione Umidità
00:00 +8°C° 0 mm 3 m/s 749 mm Hg 85%
01:00 +7°C° 0.1 mm 4 m/s 749 mm Hg 86%
02:00 +7°C° 0.1 mm 4 m/s 749 mm Hg 87%
03:00 +7°C° 0.1 mm 4 m/s 749 mm Hg 88%
04:00 +7°C° 0.1 mm 4 m/s 749 mm Hg 88%
05:00 +7°C° 0.1 mm 4 m/s 749 mm Hg 87%
06:00 +7°C° 0.1 mm 4 m/s 749 mm Hg 87%
07:00 +8°C° 0.1 mm 4 m/s 749 mm Hg 83%
08:00 +10°C° 0.1 mm 4 m/s 749 mm Hg 79%
09:00 +12°C° 0.1 mm 5 m/s 749 mm Hg 75%
10:00 +12°C° 0.2 mm 5 m/s 750 mm Hg 72%
11:00 +13°C° 0.2 mm 6 m/s 750 mm Hg 68%
12:00 +14°C° 0.2 mm 7 m/s 750 mm Hg 64%
13:00 +14°C° 0.2 mm 7 m/s 750 mm Hg 66%
14:00 +14°C° 0.2 mm 7 m/s 750 mm Hg 68%
15:00 +14°C° 0.2 mm 7 m/s 750 mm Hg 70%
16:00 +11°C° 0 mm 7 m/s 750 mm Hg 74%
17:00 +10°C° 0 mm 6 m/s 751 mm Hg 78%
18:00 +9°C° 0 mm 5 m/s 751 mm Hg 82%
19:00 +9°C° 0.1 mm 5 m/s 751 mm Hg 82%
20:00 +9°C° 0.1 mm 5 m/s 751 mm Hg 82%
21:00 +10°C° 0.1 mm 4 m/s 751 mm Hg 82%
22:00 +8°C° 0.1 mm 5 m/s 751 mm Hg 83%
23:00 +8°C° 0.1 mm 5 m/s 751 mm Hg 84%

Dopodomani, 27 Ottobre, Martedi

Tempo Temperatura Precipitazioni Vento Pressione Umidità
00:00 +8°C° 0.1 mm 5 m/s 752 mm Hg 85%
01:00 +8°C° 0 mm 4 m/s 751 mm Hg 85%
02:00 +8°C° 0 mm 4 m/s 751 mm Hg 85%
03:00 +9°C° 0 mm 3 m/s 751 mm Hg 85%
04:00 +8°C° 0.1 mm 4 m/s 751 mm Hg 86%
05:00 +10°C° 0.1 mm 4 m/s 751 mm Hg 87%
06:00 +9°C° 0.1 mm 5 m/s 750 mm Hg 88%
07:00 +10°C° 0.5 mm 5 m/s 750 mm Hg 89%
08:00 +10°C° 0.5 mm 6 m/s 749 mm Hg 91%
09:00 +11°C° 0.5 mm 7 m/s 749 mm Hg 92%
10:00 +12°C° 0.9 mm 7 m/s 748 mm Hg 93%
11:00 +12°C° 0.9 mm 8 m/s 747 mm Hg 93%
12:00 +13°C° 0.9 mm 9 m/s 747 mm Hg 94%
13:00 +13°C° 0.4 mm 8 m/s 747 mm Hg 91%
14:00 +14°C° 0.4 mm 7 m/s 747 mm Hg 88%
15:00 +15°C° 0.4 mm 6 m/s 747 mm Hg 85%
16:00 +14°C° 0.1 mm 6 m/s 747 mm Hg 85%
17:00 +13°C° 0.1 mm 6 m/s 748 mm Hg 85%
18:00 +12°C° 0.1 mm 5 m/s 748 mm Hg 85%
19:00 +12°C° 0.1 mm 5 m/s 749 mm Hg 83%
20:00 +10°C° 0.1 mm 5 m/s 749 mm Hg 82%
21:00 +10°C° 0.1 mm 5 m/s 750 mm Hg 81%
22:00 +10°C° 0.1 mm 6 m/s 750 mm Hg 81%
23:00 +10°C° 0.1 mm 6 m/s 750 mm Hg 82%

28 Ottobre, Mercoledi

Tempo Temperatura Precipitazioni Vento Pressione Umidità
00:00 +10°C° 0.1 mm 6 m/s 750 mm Hg 82%
01:00 +10°C° 0.2 mm 6 m/s 749 mm Hg 81%
02:00 +10°C° 0.2 mm 7 m/s 749 mm Hg 81%
03:00 +10°C° 0.2 mm 7 m/s 749 mm Hg 80%
04:00 +10°C° 0.2 mm 7 m/s 749 mm Hg 80%
05:00 +10°C° 0.2 mm 7 m/s 749 mm Hg 80%
06:00 +10°C° 0.2 mm 7 m/s 749 mm Hg 80%
07:00 +11°C° 0.2 mm 8 m/s 750 mm Hg 78%
08:00 +11°C° 0.2 mm 8 m/s 750 mm Hg 77%
09:00 +12°C° 0.2 mm 8 m/s 750 mm Hg 75%
10:00 +12°C° 0.1 mm 9 m/s 750 mm Hg 73%
11:00 +12°C° 0.1 mm 9 m/s 751 mm Hg 70%
12:00 +13°C° 0.1 mm 9 m/s 751 mm Hg 68%
13:00 +13°C° 0.1 mm 9 m/s 751 mm Hg 68%
14:00 +13°C° 0.1 mm 9 m/s 751 mm Hg 68%
15:00 +12°C° 0.1 mm 9 m/s 751 mm Hg 68%
16:00 +12°C° 0.1 mm 9 m/s 752 mm Hg 71%
17:00 +11°C° 0.1 mm 8 m/s 752 mm Hg 74%
18:00 +11°C° 0.1 mm 7 m/s 752 mm Hg 78%
19:00 +11°C° 0.1 mm 7 m/s 753 mm Hg 78%
20:00 +11°C° 0.1 mm 7 m/s 754 mm Hg 78%
21:00 +11°C° 0.1 mm 6 m/s 754 mm Hg 78%
22:00 +10°C° 0 mm 6 m/s 755 mm Hg 77%
23:00 +10°C° 0 mm 6 m/s 755 mm Hg 77%

29 Ottobre, Giovedi

Tempo Temperatura Precipitazioni Vento Pressione Umidità
00:00 +10°C° 0 mm 5 m/s 755 mm Hg 77%
01:00 +12°C° 0.1 mm 5 m/s 755 mm Hg 77%
02:00 +11°C° 0.1 mm 6 m/s 755 mm Hg 77%
03:00 +11°C° 0.1 mm 6 m/s 755 mm Hg 78%
04:00 +11°C° 0 mm 6 m/s 756 mm Hg 79%
05:00 +11°C° 0 mm 6 m/s 756 mm Hg 80%
06:00 +11°C° 0 mm 6 m/s 756 mm Hg 82%
07:00 +12°C° 0 mm 7 m/s 756 mm Hg 80%
08:00 +14°C° 0 mm 7 m/s 756 mm Hg 79%
09:00 +13°C° 0 mm 8 m/s 756 mm Hg 78%
10:00 +15°C° 0 mm 9 m/s 757 mm Hg 76%
11:00 +15°C° 0 mm 9 m/s 757 mm Hg 75%
12:00 +16°C° 0 mm 10 m/s 757 mm Hg 73%
13:00 +14°C° 0 mm 10 m/s 757 mm Hg 74%
14:00 +15°C° 0 mm 9 m/s 757 mm Hg 75%
15:00 +15°C° 0 mm 9 m/s 757 mm Hg 75%
16:00 +15°C° 0 mm 9 m/s 757 mm Hg 77%
17:00 +15°C° 0 mm 8 m/s 757 mm Hg 79%
18:00 +15°C° 0 mm 8 m/s 757 mm Hg 80%
19:00 +15°C° 0 mm 8 m/s 758 mm Hg 80%
20:00 +15°C° 0 mm 9 m/s 758 mm Hg 80%
21:00 +15°C° 0 mm 9 m/s 758 mm Hg 79%
22:00 +15°C° 0 mm 9 m/s 758 mm Hg 80%
23:00 +13°C° 0 mm 9 m/s 758 mm Hg 80%

30 Ottobre, Venerdi

Tempo Temperatura Precipitazioni Vento Pressione Umidità
00:00 +13°C° 0 mm 9 m/s 757 mm Hg 80%
01:00 +13°C° 0 mm 9 m/s 757 mm Hg 80%
02:00 +13°C° 0 mm 9 m/s 757 mm Hg 80%
03:00 +13°C° 0 mm 9 m/s 757 mm Hg 80%
04:00 +13°C° 0 mm 8 m/s 757 mm Hg 80%
05:00 +13°C° 0 mm 8 m/s 757 mm Hg 79%
06:00 +13°C° 0 mm 8 m/s 757 mm Hg 79%
07:00 +15°C° 0 mm 8 m/s 757 mm Hg 79%
08:00 +15°C° 0 mm 8 m/s 757 mm Hg 79%
09:00 +15°C° 0 mm 8 m/s 757 mm Hg 79%
10:00 +15°C° 0 mm 8 m/s 757 mm Hg 78%
11:00 +16°C° 0 mm 8 m/s 756 mm Hg 77%
12:00 +16°C° 0 mm 8 m/s 756 mm Hg 76%
13:00 +16°C° 0 mm 8 m/s 756 mm Hg 76%
14:00 +16°C° 0 mm 7 m/s 755 mm Hg 75%
15:00 +16°C° 0 mm 7 m/s 755 mm Hg 75%
16:00 +15°C° 0 mm 6 m/s 755 mm Hg 80%
17:00 +14°C° 0 mm 5 m/s 754 mm Hg 85%
18:00 +13°C° 0 mm 5 m/s 754 mm Hg 89%
19:00 +13°C° 0 mm 6 m/s 753 mm Hg 89%
20:00 +13°C° 0 mm 6 m/s 753 mm Hg 89%
21:00 +12°C° 0 mm 7 m/s 752 mm Hg 88%
22:00 +14°C° 0.2 mm 7 m/s 752 mm Hg 85%
23:00 +14°C° 0.2 mm 7 m/s 751 mm Hg 82%
Mostrare altro

Abbiamo bisogno del tuo consenso

Meteoprog e i nostri fornitori di servizi possono memorizzare e accedere a dati personali come cookie, identificatori di dispositivi o altre tecnologie simili sul tuo dispositivo e possono elaborare tali dati per personalizzare i contenuti e gli annunci, nonché fornire funzionalità dei social media e analizzarne il traffico.

  • Archiviare e/o accedere alle informazioni sul tuo dispositivo

    Cookie, identificatori di dispositivi o altre informazioni possono essere memorizzati o resi accessibili sul tuo dispositivo per le finalità sopra indicate.

  • Annunci e contenuti personalizzati, misurazione di annunci e contenuti, approfondimenti sul pubblico e sviluppo di prodotti

    Gli annunci e i contenuti possono essere personalizzati in base a un profilo. È possibile aggiungere più dati per personalizzare meglio annunci e contenuti. È possibile misurare il rendimento degli annunci e dei contenuti. È possibile ricavare informazioni sul pubblico che ha visto gli annunci e i contenuti. Tali dati possono essere utilizzati per sviluppare o migliorare l'esperienza, i sistemi e il software dell'utente.

Cliccando su “Accetto”, acconsenti all'uso di cookie, identificatori di dispositivo, web beacon o altre tecnologie simili. Puoi modificare le impostazioni nel browser del tuo dispositivo.

Per determinati scopi, è possibile fare affidamento su interessi legali, piuttosto che sul consenso. Puoi approfondire questo argomento consultando la nostra Informativa sulla privacy e sui cookie.